Hutchinson, KS

3:33 PM CST on February 22, 2017 (GMT -0600)
Hutchinson Municipal

Weather History for KHUT - November, 2011

Change the Weather History Date:

Wednesday, November 16, 2011

  Actual Average Record
Temperature  
Mean Temperature 33 °F -  
Max Temperature 41 °F 54 °F 81 °F (2016)
Min Temperature 25 °F 30 °F 9 °F (1997)
Degree Days  
Heating Degree Days 32    
Moisture  
Dew Point 24 °F    
Average Humidity 67    
Maximum Humidity 92    
Minimum Humidity 50    
Precipitation  
Precipitation 0.00 in - - ()
Sea Level Pressure  
Sea Level Pressure 30.27 in    
Wind  
Wind Speed 9 mph (North)    
Max Wind Speed 16 mph    
Max Gust Speed 26 mph    
Visibility 10 miles    
Events      
Averages and records for this station are not official NWS values.
T = Trace of Precipitation, MM = Missing Value Source: NWS Daily Summary

Daily Weather History Graph

Daily Weather History Graph

Search for Another Location

Airport or City:

Trip Planner

Search our weather history database for the weather conditions in past years. The results will help you decide how hot, cold, wet, or windy it might be!

Date:

Astronomy

Nov. 16, 2011 Rise Set
Actual Time 7:13 AM CST 5:18 PM CST
Civil Twilight 6:44 AM CST 5:47 PM CST
Nautical Twilight 6:13 AM CST 6:18 PM CST
Astronomical Twilight 5:41 AM CST 6:50 PM CST
Moon 10:33 PM CST (11/16) 11:50 AM CST (11/16)
Length of Visible Light 11h 02m
Length of Day
10h 05m
Waning Gibbous, 70% of the Moon is Illuminated
Nov 16
Waning Gibbous
Nov 18
Last Quarter
Nov 25
New
Dec 2
First Quarter
Dec 10
Full

Hourly Weather History & Observations

Time (CST) Temp. Windchill Dew Point Humidity Pressure Visibility Wind Dir Wind Speed Gust Speed Precip Events Conditions
12:52 AM 37.9 °F 33.5 °F 27.0 °F 65% 30.01 in 10.0 mi NNE 5.8 mph - N/A   Clear
1:52 AM 39.0 °F 32.3 °F 26.1 °F 60% 30.01 in 10.0 mi NNE 10.4 mph - N/A   Clear
2:52 AM 37.9 °F 30.9 °F 25.0 °F 60% 30.03 in 10.0 mi NE 10.4 mph 16.1 mph N/A   Clear
3:52 AM 37.0 °F 29.3 °F 23.0 °F 57% 30.05 in 10.0 mi NNE 11.5 mph - N/A   Clear
4:52 AM 37.0 °F 28.1 °F 21.9 °F 54% 30.05 in 10.0 mi NNE 15.0 mph 21.9 mph N/A   Clear
5:52 AM 37.0 °F 29.8 °F 21.0 °F 52% 30.09 in 10.0 mi NNE 10.4 mph 19.6 mph N/A   Clear
6:52 AM 36.0 °F 29.6 °F 21.0 °F 55% 30.15 in 10.0 mi NNE 8.1 mph - N/A   Mostly Cloudy
7:52 AM 36.0 °F 29.0 °F 19.0 °F 50% 30.20 in 10.0 mi North 9.2 mph - N/A   Overcast
8:52 AM 37.0 °F 28.9 °F 19.9 °F 50% 30.23 in 10.0 mi NNE 12.7 mph - N/A   Overcast
10:52 AM 37.9 °F 30.0 °F 23.0 °F 55% 30.30 in 10.0 mi NNE 12.7 mph 26.5 mph N/A   Overcast
11:52 AM 39.0 °F 31.8 °F 25.0 °F 57% 30.31 in 10.0 mi NE 11.5 mph - N/A   Overcast
12:52 PM 39.9 °F 31.4 °F 25.0 °F 55% 30.30 in 10.0 mi ENE 16.1 mph 23.0 mph N/A   Scattered Clouds
1:52 PM 41.0 °F 34.7 °F 26.1 °F 55% 30.31 in 10.0 mi NNE 10.4 mph - N/A   Overcast
2:52 PM 39.9 °F 32.1 °F 25.0 °F 55% 30.32 in 10.0 mi NNE 13.8 mph - N/A   Overcast
3:52 PM 36.0 °F 28.5 °F 27.0 °F 70% 30.34 in 10.0 mi NNE 10.4 mph - N/A   Mostly Cloudy
4:52 PM 36.0 °F 29.0 °F 27.0 °F 70% 30.36 in 10.0 mi North 9.2 mph - N/A   Mostly Cloudy
5:52 PM 33.8 °F 26.4 °F 26.6 °F 75% 30.38 in 10.0 mi North 9.2 mph - N/A   Overcast
6:52 PM 33.1 °F 26.9 °F 27.0 °F 78% 30.40 in 10.0 mi NW 6.9 mph - N/A   Mostly Cloudy
7:20 PM 30.2 °F 24.3 °F 24.8 °F 80% 30.40 in 10.0 mi NW 5.8 mph - N/A   Clear
7:52 PM 28.0 °F 24.2 °F 25.0 °F 88% 30.42 in 10.0 mi NW 3.5 mph - N/A   Clear
8:52 PM 27.0 °F 21.6 °F 24.1 °F 89% 30.43 in 10.0 mi NW 4.6 mph - N/A   Clear
9:52 PM 27.0 °F 20.5 °F 25.0 °F 92% 30.43 in 10.0 mi NW 5.8 mph - N/A   Clear
10:52 PM 25.0 °F 20.7 °F 23.0 °F 92% 30.43 in 10.0 mi WNW 3.5 mph - N/A   Clear
11:52 PM 25.0 °F 19.3 °F 21.9 °F 88% 30.43 in 10.0 mi NW 4.6 mph - N/A   Clear